ONEWEB-0302, 49091

Orbit data source: Space-Track

ONEWEB-0302, 49091 is a payload satellite owned by One Web (NAA) (UK) in LEO that was launched on Sat, 21 Aug 2021 UTC via a SOYUZ-2-1B launch vehicle from the Tyuratam Missile And Space Complex (TTMTR). Payload-class satellites include a variety of spacecraft equipped with specific instruments for various scientific and technological missions. These include communications satellites like Starlink; space stations such as the ISS; scientific satellites like the Hubble; Earth observation satellites from companies like Planet Labs, Umbra, and HawkEye 360; GPS; miniature CubeSats for education and research; and military/defense satellites.

Loading next visibility...
Identifier
49091, 2021-075S
Orbit
LEO
Country
Flag of UKUK
Related business
Manufacturer
One Web
Mission
Operational Commercial Communications
Bus & Motor
ARROW, Unknown motor
Mass
148 kg wet, ~140 kg dry
Launch date (UTC)
2021-08-21 (5 years ago)
Launch vehicle
SOYUZ-2-1B
Launch site
Tyuratam Missile And Space Complex (TTMTR)
Object type
Payload
Rocket body
Debris
Shape & HBR
Trap Box + 2 Pan, 6.7 m
Radar Cross Section
3.464 m², Large (>1 m²)

Expand to show TLE details & history
Last TLE update: 8 hours ago

TLE from 8 hours ago
0 ONEWEB-0302
1 49091U 21075S   26130.18479068 -.00000211  00000-0 -62236-3 0  9991
2 49091  87.8981 358.2205 0001435  83.2238 276.9054 13.12442930229566
Epoch: 2026-05-10T04:26Z
TLE epoch observation values (Epoch: 2026-05-10T04:26:05.914Z)
Latitude
-0.00002°
Longitude
63.70435°
Altitude
1,216.483 km
Speed
7.246 km/s
True Right ascension
23h 52m 52s
True Declination
0° 00' 00"
Sunlit
Object was in daylight at epoch
Visualization orbit readout
Latitude
Unknown
Longitude
Unknown
Altitude
Unknown
Speed
Unknown
Apparent Right ascension
Unknown
Apparent Declination
Unknown
Sunlit
N/A
Visualization observer readout
Local Sidereal Time
20:36:19
Azimuth
Unknown
Elevation
Unknown
Doppler factor
Unknown
Orbital elements
Apogee altitude
1,211.929 km
Perigee altitude
1,209.751 km
Semi-major axis
7,588.977 km
Eccentricity
0.00014
Inclination
87.8981°
RAAN
358.2205°
Arg. of periapsis
83.2238°
True anomaly
276.88908°
Mean anomaly
276.9054°
Eccentric anomaly
276.89724°
Mean motion
3.28298 °/min
Orbital period
109.66 mins
BSTAR
-0.00062236
Loading maneuver chart data...
Computing Atmospheric mass density...
Loading historical data...
Loading historical data...
Loading historical data...
Loading historical data...
Loading historical data...
Loading historical data...
Loading historical data...

Documentation

Showing up to 5 results
|